• In Romania
  • List of Countries
  • For 7 days
  • Water Temperature
  • Satellite Maps
  • Weather Map
  • Weather Widgets
  • user-avatar
    Login

    Hourly Weather Ulin

    Today, 25 April, Wednesday

    Time Temperature Precipitation Wind Pressure Humidity
    00:00 +6°C° 0 mm 2 mps 737 mmHg 95%
    01:00 +5°C° 0 mm 2 mps 737 mmHg 95%
    02:00 +5°C° 0 mm 2 mps 736 mmHg 96%
    03:00 +5°C° 0 mm 2 mps 736 mmHg 95%
    04:00 +5°C° 0 mm 2 mps 736 mmHg 94%
    05:00 +4°C° 0 mm 2 mps 736 mmHg 94%
    06:00 +4°C° 0.2 mm 3 mps 735 mmHg 90%
    07:00 +5°C° 0.2 mm 3 mps 735 mmHg 87%
    08:00 +8°C° 0.2 mm 3 mps 735 mmHg 83%
    09:00 +7°C° 0.3 mm 4 mps 735 mmHg 79%
    10:00 +8°C° 0.3 mm 4 mps 735 mmHg 75%
    11:00 +10°C° 0.3 mm 4 mps 735 mmHg 72%
    12:00 +11°C° 0.2 mm 4 mps 735 mmHg 67%
    13:00 +12°C° 0.2 mm 5 mps 735 mmHg 61%
    14:00 +12°C° 0.2 mm 5 mps 734 mmHg 56%
    15:00 +12°C° 0.1 mm 4 mps 734 mmHg 57%
    16:00 +12°C° 0.1 mm 4 mps 734 mmHg 57%
    17:00 +12°C° 0.1 mm 4 mps 734 mmHg 57%
    18:00 +10°C° 0 mm 3 mps 734 mmHg 64%
    19:00 +9°C° 0 mm 2 mps 734 mmHg 70%
    20:00 +8°C° 0 mm 1 mps 733 mmHg 76%
    21:00 +8°C° 0.1 mm 1 mps 733 mmHg 79%
    22:00 +7°C° 0.1 mm 2 mps 732 mmHg 83%
    23:00 +7°C° 0.1 mm 2 mps 732 mmHg 86%

    Tomorrow, 26 April, Thursday

    Time Temperature Precipitation Wind Pressure Humidity
    00:00 +7°C° 0.4 mm 2 mps 731 mmHg 89%
    01:00 +7°C° 0.4 mm 2 mps 731 mmHg 92%
    02:00 +7°C° 0.4 mm 2 mps 730 mmHg 95%
    03:00 +7°C° 0.2 mm 2 mps 730 mmHg 94%
    04:00 +7°C° 0.2 mm 3 mps 729 mmHg 94%
    05:00 +8°C° 0.2 mm 3 mps 729 mmHg 94%
    06:00 +7°C° 0.2 mm 4 mps 729 mmHg 91%
    07:00 +7°C° 0.2 mm 4 mps 729 mmHg 89%
    08:00 +7°C° 0.2 mm 5 mps 730 mmHg 87%
    09:00 +7°C° 0.3 mm 5 mps 730 mmHg 86%
    10:00 +7°C° 0.3 mm 5 mps 731 mmHg 85%
    11:00 +7°C° 0.3 mm 6 mps 732 mmHg 84%
    12:00 +8°C° 0.2 mm 6 mps 733 mmHg 77%
    13:00 +9°C° 0.2 mm 5 mps 733 mmHg 69%
    14:00 +10°C° 0.2 mm 5 mps 734 mmHg 61%
    15:00 +10°C° 0.2 mm 5 mps 734 mmHg 62%
    16:00 +10°C° 0.2 mm 5 mps 735 mmHg 62%
    17:00 +10°C° 0.2 mm 4 mps 735 mmHg 62%
    18:00 +8°C° 0 mm 4 mps 736 mmHg 68%
    19:00 +8°C° 0 mm 3 mps 736 mmHg 74%
    20:00 +6°C° 0 mm 2 mps 737 mmHg 81%
    21:00 +5°C° 0.1 mm 3 mps 737 mmHg 83%
    22:00 +5°C° 0.1 mm 3 mps 738 mmHg 85%
    23:00 +5°C° 0.1 mm 3 mps 738 mmHg 86%

    Day after tomorrow, 27 April, Friday

    Time Temperature Precipitation Wind Pressure Humidity
    00:00 +4°C° 0 mm 3 mps 738 mmHg 89%
    01:00 +5°C° 0 mm 2 mps 738 mmHg 92%
    02:00 +4°C° 0 mm 2 mps 738 mmHg 94%
    03:00 +4°C° 0 mm 2 mps 739 mmHg 95%
    04:00 +3°C° 0 mm 2 mps 739 mmHg 96%
    05:00 +3°C° 0 mm 2 mps 739 mmHg 96%
    06:00 +5°C° 0 mm 2 mps 740 mmHg 90%
    07:00 +6°C° 0 mm 2 mps 740 mmHg 84%
    08:00 +8°C° 0 mm 3 mps 740 mmHg 78%
    09:00 +9°C° 0 mm 3 mps 740 mmHg 71%
    10:00 +10°C° 0 mm 3 mps 741 mmHg 64%
    11:00 +11°C° 0 mm 3 mps 741 mmHg 58%
    12:00 +12°C° 0 mm 3 mps 741 mmHg 52%
    13:00 +13°C° 0 mm 3 mps 741 mmHg 47%
    14:00 +14°C° 0 mm 3 mps 741 mmHg 42%
    15:00 +14°C° 0 mm 3 mps 741 mmHg 42%
    16:00 +13°C° 0 mm 3 mps 740 mmHg 43%
    17:00 +13°C° 0 mm 3 mps 740 mmHg 44%
    18:00 +12°C° 0.3 mm 2 mps 741 mmHg 54%
    19:00 +10°C° 0.3 mm 2 mps 741 mmHg 63%
    20:00 +9°C° 0.3 mm 1 mps 741 mmHg 73%
    21:00 +8°C° 0.2 mm 1 mps 742 mmHg 77%
    22:00 +6°C° 0.2 mm 2 mps 742 mmHg 82%
    23:00 +6°C° 0.2 mm 2 mps 742 mmHg 86%

    28 April, Saturday

    Time Temperature Precipitation Wind Pressure Humidity
    00:00 +5°C° 0 mm 2 mps 743 mmHg 89%
    01:00 +5°C° 0 mm 2 mps 743 mmHg 92%
    02:00 +4°C° 0 mm 2 mps 743 mmHg 95%
    03:00 +4°C° 0 mm 2 mps 743 mmHg 95%
    04:00 +4°C° 0 mm 2 mps 744 mmHg 96%
    05:00 +4°C° 0 mm 2 mps 744 mmHg 97%
    06:00 +5°C° 0 mm 2 mps 744 mmHg 89%
    07:00 +5°C° 0 mm 3 mps 745 mmHg 82%
    08:00 +8°C° 0 mm 3 mps 745 mmHg 74%
    09:00 +9°C° 0 mm 3 mps 746 mmHg 68%
    10:00 +10°C° 0 mm 3 mps 746 mmHg 62%
    11:00 +11°C° 0 mm 4 mps 746 mmHg 56%
    12:00 +12°C° 0.1 mm 4 mps 746 mmHg 52%
    13:00 +13°C° 0.1 mm 4 mps 746 mmHg 48%
    14:00 +13°C° 0.1 mm 4 mps 746 mmHg 44%
    15:00 +13°C° 0 mm 3 mps 746 mmHg 45%
    16:00 +13°C° 0 mm 3 mps 746 mmHg 46%
    17:00 +13°C° 0 mm 3 mps 746 mmHg 46%
    18:00 +13°C° 0 mm 2 mps 746 mmHg 53%
    19:00 +10°C° 0 mm 2 mps 746 mmHg 59%
    20:00 +10°C° 0 mm 1 mps 746 mmHg 65%
    21:00 +9°C° 0 mm 1 mps 747 mmHg 67%
    22:00 +8°C° 0 mm 1 mps 747 mmHg 70%
    23:00 +7°C° 0 mm 2 mps 747 mmHg 73%

    29 April, Sunday

    Time Temperature Precipitation Wind Pressure Humidity
    00:00 +7°C° 0 mm 2 mps 746 mmHg 74%
    01:00 +7°C° 0 mm 2 mps 746 mmHg 75%
    02:00 +7°C° 0 mm 2 mps 746 mmHg 76%
    03:00 +7°C° 0.6 mm 3 mps 746 mmHg 79%
    04:00 +7°C° 0.6 mm 3 mps 745 mmHg 82%
    05:00 +8°C° 0.6 mm 3 mps 745 mmHg 85%
    06:00 +9°C° 0.3 mm 3 mps 745 mmHg 82%
    07:00 +10°C° 0.3 mm 4 mps 744 mmHg 79%
    08:00 +11°C° 0.3 mm 4 mps 744 mmHg 76%
    09:00 +13°C° 0 mm 4 mps 744 mmHg 71%
    10:00 +15°C° 0 mm 4 mps 744 mmHg 66%
    11:00 +18°C° 0 mm 4 mps 743 mmHg 61%
    12:00 +19°C° 0 mm 5 mps 743 mmHg 56%
    13:00 +20°C° 0 mm 5 mps 743 mmHg 51%
    14:00 +21°C° 0 mm 5 mps 743 mmHg 46%
    15:00 +20°C° 0 mm 4 mps 743 mmHg 47%
    16:00 +20°C° 0 mm 4 mps 743 mmHg 47%
    17:00 +20°C° 0 mm 3 mps 743 mmHg 48%
    18:00 +17°C° 0 mm 2 mps 743 mmHg 56%
    19:00 +15°C° 0 mm 2 mps 743 mmHg 64%
    20:00 +13°C° 0 mm 1 mps 743 mmHg 72%
    21:00 +12°C° 0 mm 1 mps 743 mmHg 75%
    22:00 +11°C° 0 mm 1 mps 743 mmHg 77%
    23:00 +10°C° 0 mm 1 mps 743 mmHg 80%

    30 April, Monday

    Time Temperature Precipitation Wind Pressure Humidity
    00:00 +10°C° 0 mm 1 mps 743 mmHg 81%
    01:00 +10°C° 0 mm 1 mps 743 mmHg 82%
    02:00 +10°C° 0 mm 1 mps 743 mmHg 83%
    03:00 +10°C° 0 mm 1 mps 743 mmHg 83%
    04:00 +10°C° 0 mm 1 mps 743 mmHg 83%
    05:00 +9°C° 0 mm 0 mps 743 mmHg 83%
    06:00 +12°C° 0 mm 1 mps 743 mmHg 76%
    07:00 +14°C° 0 mm 1 mps 743 mmHg 69%
    08:00 +16°C° 0 mm 1 mps 743 mmHg 62%
    09:00 +18°C° 0.1 mm 2 mps 743 mmHg 61%
    10:00 +20°C° 0.1 mm 2 mps 742 mmHg 59%
    11:00 +22°C° 0.1 mm 3 mps 742 mmHg 57%
    12:00 +22°C° 0.5 mm 3 mps 741 mmHg 55%
    13:00 +23°C° 0.5 mm 4 mps 741 mmHg 54%
    14:00 +23°C° 0.5 mm 4 mps 740 mmHg 52%
    15:00 +23°C° 0.1 mm 4 mps 740 mmHg 51%
    16:00 +23°C° 0.1 mm 4 mps 739 mmHg 50%
    17:00 +22°C° 0.1 mm 3 mps 739 mmHg 49%
    18:00 +20°C° 0 mm 3 mps 739 mmHg 55%
    19:00 +19°C° 0 mm 3 mps 738 mmHg 60%
    20:00 +17°C° 0 mm 3 mps 738 mmHg 66%
    21:00 +16°C° 0 mm 3 mps 738 mmHg 67%
    22:00 +16°C° 0 mm 3 mps 738 mmHg 69%
    23:00 +14°C° 0 mm 3 mps 738 mmHg 71%
    Show more